Volver al catálogo

FENGYUN 1C DEB

LostSSO
NORAD 32107·DEBRIS·🇨🇳 China

Lanzado May 10, 1999 desde Taiyuan Satellite Launch Center

Loading…

Próximos Pases (próximas 24 horas)

TLE

ObsoletoSource: Space-Track

Época: Oct 27, 2013, 18:57 UTC

1 32107U 99025CQZ 13300.78988154 +.00000977 +00000-0 +62143-3 0  9997
2 32107 099.0796 305.0171 0070515 203.5979 157.6186 14.04978693319711

Sigue FENGYUN 1C DEB en tiempo real con AllMySat

Download on the App Store